Location: Izdebno
(52.6670°N, 16.2170°E)
Time: 03:08:07
(UTC+02:00)

SR - Pass Details

Date: 26 February 2024
Orbit: 577 x 862 km, 66.7° (Epoch: 22 April)

Event Time Altitude Azimuth Distance (km) Brightness Sun altitude
Rises 13:29:45 0° 161° (SSE) 3,437 ? 26.1°
Reaches altitude 10° 13:33:14 10° 140° (SE) 2,498 ? 25.9°
Maximum altitude 13:36:32 16° 105° (ESE) 2,102 ? 25.7°
Drops below altitude 10° 13:39:47 10° 70° (ENE) 2,458 ? 25.5°
Sets 13:43:09 0° 50° (NE) 3,354 ? 25.3°
